EW0608 Weather Reports


Display with metric or nautical units.
time (UTC)temp
F
wind
direction
speed
MPH
gust
MPH
rain 1hr
in
rain 24hr
in
rain mn
in
humidity
%
barometer
mb
20260904195845 74 87 0.0 0.0 0.00 0.00 0.00 93 1013.7
20260904195338 74 87 0.0 0.0 0.00 0.00 0.00 93 1013.5
20260904194851 74 87 0.0 0.0 0.00 0.00 0.00 93 1013.6
20260904194548 73 87 0.0 0.0 0.00 0.00 0.00 93 1012.2
20260904194344 74 87 0.0 0.0 0.00 0.00 0.00 93 1013.5
20260904193855 74 87 0.0 0.0 0.00 0.00 0.00 93 1013.5
20260904193407 74 87 0.0 0.0 0.00 0.00 0.00 93 1013.5
20260904193040 73 87 0.0 0.0 0.00 0.00 0.00 93 1012.3
20260904192840 74 87 0.0 0.0 0.00 0.00 0.00 93 1013.6
20260904192352 74 87 0.0 0.0 0.00 0.00 0.00 93 1013.8
20260904191904 74 87 0.0 0.0 0.00 0.00 0.00 93 1013.9
20260904191519 73 87 0.0 0.0 0.00 0.00 0.00 93 1012.4
20260904191415 74 87 0.0 0.0 0.00 0.00 0.00 93 1013.7
20260904190847 74 87 0.0 0.0 0.00 0.00 0.00 93 1013.6
20260904190342 74 87 0.0 0.0 0.00 0.00 0.00 93 1013.7
20260904190012 74 87 0.0 2.0 0.00 0.00 0.00 92 1012.4
20260904185909 75 87 0.0 4.0 0.00 0.00 0.00 91 1013.7
20260904185341 76 87 0.0 6.0 0.00 0.00 0.00 91 1013.9
20260904184853 77 96 3.0 8.0 0.00 0.00 0.00 91 1014.0
20260904184606 77 84 4.0 8.0 0.00 0.00 0.00 91 1012.5
20260904184346 78 79 3.0 7.0 0.00 0.00 0.00 92 1014.0
20260904183838 78 205 0.0 3.0 0.00 0.00 0.00 91 1013.7
20260904183350 79 229 0.0 2.0 0.00 0.00 0.00 90 1013.3
20260904183043 79 229 0.0 0.0 0.00 0.00 0.00 90 1012.0
20260904182843 80 229 0.0 0.0 0.00 0.00 0.00 90 1013.4
20260904182336 81 229 0.0 0.0 0.00 0.00 0.00 87 1013.1
20260904181849 83 229 0.0 0.0 0.00 0.00 0.00 83 1013.1
20260904181539 84 229 0.0 0.0 0.00 0.00 0.00 80 1011.9
20260904181338 86 229 0.0 0.0 0.00 0.00 0.00 76 1013.3
20260904180851 86 229 0.0 0.0 0.00 0.00 0.00 72 1013.4
20260904180343 87 229 0.0 4.0 0.00 0.00 0.00 68 1013.4
20260904180054 87 229 0.0 5.0 0.00 0.00 0.00 66 1012.2
20260904175853 87 229 2.0 6.0 0.00 0.00 0.00 66 1013.5
20260904175406 88 242 3.0 6.0 0.00 0.00 0.00 64 1013.6
20260904174837 89 232 2.0 5.0 0.00 0.00 0.00 65 1013.5
20260904174614 89 146 0.0 2.0 0.00 0.00 0.00 67 1012.2
20260904174352 89 217 0.0 3.0 0.00 0.00 0.00 68 1013.6
20260904173847 88 92 0.0 3.0 0.00 0.00 0.00 69 1013.7
20260904173400 87 175 1.0 3.0 0.00 0.00 0.00 68 1013.7
20260904173052 87 175 0.0 3.0 0.00 0.00 0.00 71 1012.4
20260904172851 87 175 2.0 3.0 0.00 0.00 0.00 69 1013.8
20260904172344 87 200 0.0 3.0 0.00 0.00 0.00 71 1013.9
20260904171916 86 214 1.0 3.0 0.00 0.00 0.00 68 1014.1
20260904171550 86 214 1.0 3.0 0.00 0.00 0.00 67 1012.7
20260904171348 87 214 1.0 3.0 0.00 0.00 0.00 67 1014.1
20260904170841 86 188 0.0 1.0 0.00 0.00 0.00 71 1014.1
20260904170353 86 188 0.0 4.0 0.00 0.00 0.00 70 1014.1
20260904170047 86 188 1.0 4.0 0.00 0.00 0.00 68 1012.8
20260904165840 86 200 2.0 4.0 0.00 0.00 0.00 70 1014.1
20260904165353 86 243 2.0 4.0 0.00 0.00 0.00 68 1014.2
20260904164846 86 180 2.0 4.0 0.00 0.00 0.00 68 1014.2
20260904164541 85 234 1.0 5.0 0.00 0.00 0.00 68 1013.0
20260904164339 86 107 1.0 5.0 0.00 0.00 0.00 69 1014.4
20260904163850 85 226 1.0 5.0 0.00 0.00 0.00 71 1014.5
20260904163341 85 175 3.0 5.0 0.00 0.00 0.00 68 1014.6
20260904163056 85 192 0.0 5.0 0.00 0.00 0.00 69 1013.3
20260904162854 85 227 1.0 5.0 0.00 0.00 0.00 69 1014.6
20260904162348 85 168 0.0 5.0 0.00 0.00 0.00 71 1014.7
20260904161841 85 202 3.0 5.0 0.00 0.00 0.00 70 1014.8
20260904161605 84 227 2.0 5.0 0.00 0.00 0.00 71 1013.4
20260904161355 84 111 1.0 2.0 0.00 0.00 0.00 73 1014.7
20260904160847 84 231 0.0 3.0 0.00 0.00 0.00 72 1014.8
20260904160342 84 130 0.0 3.0 0.00 0.00 0.00 73 1014.8
20260904160052 83 163 1.0 4.0 0.00 0.00 0.00 72 1013.4
20260904155852 84 163 1.0 4.0 0.00 0.00 0.00 72 1014.8
20260904155425 83 226 1.0 3.0 0.00 0.00 0.00 76 1014.8
20260904154854 84 215 0.0 2.0 0.00 0.00 0.00 73 1014.8
20260904154548 83 218 1.0 3.0 0.00 0.00 0.00 72 1013.6
20260904154346 83 248 1.0 3.0 0.00 0.00 0.00 72 1014.8
20260904153840 82 96 2.0 5.0 0.00 0.00 0.00 76 1014.8
20260904153350 83 147 1.0 5.0 0.00 0.00 0.00 74 1014.8
20260904153049 82 231 2.0 5.0 0.00 0.00 0.00 73 1013.5
20260904152844 82 53 1.0 3.0 0.00 0.00 0.00 76 1014.8
20260904152340 82 91 1.0 3.0 0.00 0.00 0.00 73 1014.7
20260904151852 82 221 327.0 327.0 0.00 0.00 0.00 74 1014.5
20260904151552 81 323 0.0 0.0 0.00 0.00 0.00 74 1013.6
20260904151346 81 230 0.0 0.0 0.00 0.00 0.00 75 1014.9
20260904150900 80 184 0.0 0.0 0.00 0.00 0.00 83 1014.9
20260904150412 80 184 0.0 0.0 0.00 0.00 0.00 80 1014.8
20260904150042 80 185 0.0 0.0 0.00 0.00 0.00 79 1013.6
20260904145841 80 209 0.0 0.0 0.00 0.00 0.00 79 1014.8
20260904145353 78 276 0.0 0.0 0.00 0.00 0.00 84 1014.9
20260904144846 78 75 0.0 0.0 0.00 0.00 0.00 90 1015.0
20260904144537 77 234 0.0 0.0 0.00 0.00 0.00 91 1013.7
20260904144437 77 234 0.0 0.0 0.00 0.00 0.00 91 1015.0
20260904143847 76 234 0.0 0.0 0.00 0.00 0.00 93 1015.0
20260904143028 75 234 0.0 0.0 0.00 0.00 0.00 94 1013.9
20260904141524 74 234 0.0 0.0 0.00 0.00 0.00 95 1014.0
20260904140022 73 234 0.0 0.0 0.00 0.00 0.00 95 1014.0
20260904134518 72 234 0.0 0.0 0.00 0.00 0.00 95 1013.9
20260904133015 69 234 0.0 0.0 0.00 0.00 0.00 95 1014.2
20260904131513 68 234 0.0 0.0 0.00 0.00 0.00 95 1014.2
20260904130016 68 234 0.0 0.0 0.00 0.00 0.00 95 1014.3
20260904124518 68 234 0.0 0.0 0.00 0.00 0.00 95 1014.5
20260904123012 67 234 0.0 0.0 0.00 0.00 0.00 95 1014.3
20260904121512 67 234 0.0 0.0 0.00 0.00 0.00 95 1014.4
20260904120012 67 234 0.0 0.0 0.00 0.00 0.00 95 1014.3
20260904114510 67 234 0.0 0.0 0.00 0.00 0.00 95 1013.9
20260904113011 67 234 0.0 0.0 0.00 0.00 0.00 95 1013.6
20260904111510 67 234 0.0 0.0 0.00 0.00 0.00 95 1013.7
20260904110009 67 234 0.0 0.0 0.00 0.00 0.00 95 1013.8
20260904104509 67 234 0.0 0.0 0.00 0.00 0.00 95 1014.0
20260904103009 67 234 0.0 0.0 0.00 0.00 0.00 95 1013.7
20260904101511 67 234 0.0 0.0 0.00 0.00 0.00 95 1013.7
20260904100007 67 234 0.0 0.0 0.00 0.00 0.00 95 1013.8
20260904094511 67 234 0.0 0.0 0.00 0.00 0.00 95 1013.6
20260904093015 67 234 0.0 0.0 0.00 0.00 0.00 95 1013.8
20260904091506 67 234 0.0 0.0 0.00 0.00 0.00 95 1013.6
20260904090005 67 234 0.0 0.0 0.00 0.00 0.00 95 1013.6
20260904084505 67 234 0.0 0.0 0.00 0.00 0.00 95 1012.6
20260904083005 67 234 0.0 0.0 0.00 0.00 0.00 95 1012.4
20260904081507 66 234 0.0 0.0 0.00 0.00 0.00 95 1012.5
20260904080002 67 234 0.0 0.0 0.00 0.00 0.00 95 1012.9
20260904074500 67 234 0.0 0.0 0.00 0.00 0.00 95 1013.0
20260904073101 67 234 0.0 0.0 0.00 0.00 0.00 95 1012.9
20260904071601 67 234 0.0 0.0 0.00 0.00 0.00 95 1012.8
20260904070059 67 234 0.0 0.0 0.00 0.00 0.00 95 1012.6
20260904064557 67 234 0.0 0.0 0.00 0.00 0.00 95 1012.6
20260904063057 67 234 0.0 0.0 0.00 0.00 0.00 95 1012.6
20260904061601 67 234 0.0 0.0 0.00 0.00 0.00 95 1012.6
20260904060907 68 234 0.0 0.0 0.00 0.00 0.00 95 1013.9
20260904060341 68 234 0.0 0.0 0.00 0.00 0.00 95 1014.0
20260904060051 68 234 0.0 0.0 0.00 0.00 0.00 95 1012.8
20260904055850 68 234 0.0 0.0 0.00 0.00 0.00 95 1014.2
20260904055343 68 234 0.0 0.0 0.00 0.00 0.00 95 1014.1
20260904054855 68 234 0.0 0.0 0.00 0.00 0.00 95 1014.2
20260904054551 68 234 0.0 0.0 0.00 0.00 0.00 95 1013.0
20260904054348 68 234 0.0 0.0 0.00 0.00 0.00 95 1014.3
20260904053902 68 234 0.0 0.0 0.00 0.00 0.00 95 1014.4
20260904053353 68 234 0.0 0.0 0.00 0.00 0.00 95 1014.6
20260904053059 68 234 0.0 0.0 0.00 0.00 0.00 95 1013.4
20260904052844 68 234 0.0 0.0 0.00 0.00 0.00 95 1014.8
20260904052336 68 234 0.0 0.0 0.00 0.00 0.00 95 1014.8
20260904051848 68 234 0.0 0.0 0.00 0.00 0.00 95 1014.7
20260904051546 68 234 0.0 0.0 0.00 0.00 0.00 95 1013.6
20260904051341 68 234 0.0 0.0 0.00 0.00 0.00 95 1014.9
20260904050934 68 234 0.0 0.0 0.00 0.00 0.00 95 1015.2
20260904050343 68 234 0.0 0.0 0.00 0.00 0.00 95 1015.3
20260904050057 68 234 0.0 0.0 0.00 0.00 0.00 95 1014.1
20260904045851 68 234 0.0 0.0 0.00 0.00 0.00 95 1015.3
20260904045346 68 234 0.0 0.0 0.00 0.00 0.00 95 1015.5
20260904044837 68 234 0.0 0.0 0.00 0.00 0.00 95 1015.5
20260904044553 68 234 0.0 0.0 0.00 0.00 0.00 95 1014.3
20260904044350 69 234 0.0 0.0 0.00 0.00 0.00 95 1015.7
20260904043842 69 234 0.0 0.0 0.00 0.00 0.00 95 1015.8
20260904043415 69 234 0.0 0.0 0.00 0.00 0.00 95 1015.9
20260904043027 68 234 0.0 0.0 0.00 0.00 0.00 95 1014.6
20260904042926 69 234 0.0 0.0 0.00 0.00 0.00 95 1015.9
20260904042413 69 234 0.0 0.0 0.00 0.00 0.00 95 1015.9
20260904041843 69 234 0.0 0.0 0.00 0.00 0.00 95 1015.9
20260904041543 68 234 0.0 0.0 0.00 0.00 0.00 95 1014.7
20260904040910 69 234 0.0 0.0 0.00 0.00 0.00 95 1016.3
20260904040343 69 234 0.0 0.0 0.00 0.00 0.00 95 1016.5
20260904040053 68 234 0.0 0.0 0.00 0.00 0.00 95 1015.1
20260904035853 69 234 0.0 0.0 0.00 0.00 0.00 95 1016.4
20260904035346 69 234 0.0 0.0 0.00 0.00 0.00 95 1016.5
20260904034839 69 234 0.0 0.0 0.00 0.00 0.00 95 1016.6
20260904034508 68 234 0.0 0.0 0.00 0.00 0.00 95 1015.3
20260904034408 69 234 0.0 0.0 0.00 0.00 0.00 95 1016.5
20260904033845 69 234 0.0 4.0 0.00 0.00 0.00 95 1016.4
20260904033337 69 177 0.0 4.0 0.00 0.00 0.00 95 1016.5
20260904033103 68 150 0.0 4.0 0.00 0.00 0.00 95 1015.7
20260904032851 69 86 0.0 0.0 0.00 0.00 0.00 95 1017.0
20260904032343 69 156 327.0 327.0 0.00 0.00 0.00 94 1016.6
20260904031836 69 100 0.0 0.0 0.00 0.00 0.00 94 1017.5
20260904031510 68 100 0.0 0.0 0.00 0.00 0.00 94 1015.7
20260904031348 69 100 0.0 0.0 0.00 0.00 0.00 95 1016.9
20260904030841 69 100 0.0 0.0 0.00 0.00 0.00 94 1017.4
20260904030354 69 238 0.0 0.0 0.00 0.00 0.00 94 1017.5
20260904030043 69 167 0.0 0.0 0.00 0.00 0.00 94 1016.2
20260904025842 69 167 0.0 0.0 0.00 0.00 0.00 94 1017.5
20260904025335 69 92 0.0 0.0 0.00 0.00 0.00 94 1018.1
20260904024907 69 30 0.0 0.0 0.00 0.00 0.00 94 1018.6
20260904024540 69 32 0.0 0.0 0.00 0.00 0.00 94 1017.3
20260904024340 69 92 0.0 0.0 0.00 0.00 0.00 94 1018.5
20260904023852 70 277 0.0 1.0 0.00 0.00 0.00 94 1018.7
20260904023344 70 18 0.0 0.0 0.00 0.00 0.00 94 1017.7
20260904023057 70 169 0.0 2.0 0.00 0.00 0.00 93 1016.2
20260904022857 70 169 0.0 2.0 0.00 0.00 0.00 93 1017.3
20260904022408 70 257 1.0 2.0 0.00 0.00 0.00 92 1017.8
20260904021900 71 257 1.0 13.0 0.00 0.00 0.00 91 1017.1
20260904021551 71 163 0.0 13.0 0.00 0.00 0.00 91 1015.4
20260904021351 72 163 2.0 13.0 0.00 0.00 0.00 89 1016.8
20260904020904 75 106 3.0 9.0 0.00 0.00 0.00 86 1017.1
20260904020357 76 338 3.0 5.0 0.00 0.00 0.00 84 1017.6
20260904020059 76 348 0.0 1.0 0.00 0.00 0.00 85 1015.6
20260904015847 77 348 0.0 1.0 0.00 0.00 0.00 86 1016.6
20260904015340 77 134 0.0 1.0 0.00 0.00 0.00 88 1016.0
20260904014852 77 134 0.0 4.0 0.00 0.00 0.00 90 1015.9
20260904014506 77 355 0.0 4.0 0.00 0.00 0.00 91 1014.7
20260904014405 77 355 0.0 4.0 0.00 0.00 0.00 91 1016.0
20260904013836 77 136 0.0 3.0 0.00 0.00 0.00 92 1015.8
20260904013349 77 136 0.0 3.0 0.00 0.00 0.00 93 1015.8
20260904013046 77 136 0.0 3.0 0.00 0.00 0.00 93 1014.4
20260904012843 77 80 1.0 3.0 0.00 0.00 0.00 93 1015.8
20260904012414 77 68 0.0 3.0 0.00 0.00 0.00 94 1015.4
20260904011846 77 68 1.0 3.0 0.00 0.00 0.00 94 1015.0
20260904011607 77 28 0.0 2.0 0.00 0.00 0.00 94 1013.6
20260904011400 77 28 1.0 2.0 0.00 0.00 0.00 94 1015.0
20260904010852 77 238 0.0 0.0 0.00 0.00 0.00 94 1014.6
20260904010408 77 238 0.0 0.0 0.00 0.00 0.00 94 1014.4
20260904010100 77 238 0.0 0.0 0.00 0.00 0.00 94 1012.8
20260904005856 77 238 0.0 0.0 0.00 0.00 0.00 94 1014.3
20260904005408 77 238 0.0 0.0 0.00 0.00 0.00 94 1014.4
20260904004840 78 238 0.0 0.0 0.00 0.00 0.00 94 1014.3
20260904004552 77 238 0.0 0.0 0.00 0.00 0.00 93 1012.9
20260904004352 78 238 0.0 0.0 0.00 0.00 0.00 93 1014.3
20260904003845 78 238 0.0 0.0 0.00 0.00 0.00 93 1014.4
20260904003357 78 238 0.0 0.0 0.00 0.00 0.00 93 1014.4
20260904003059 78 238 0.0 0.0 0.00 0.00 0.00 93 1013.0
20260904002850 78 238 0.0 0.0 0.00 0.00 0.00 93 1014.4
20260904002403 78 238 0.0 0.0 0.00 0.00 0.00 93 1014.2
20260904001835 78 238 0.0 0.0 0.00 0.00 0.00 93 1014.2
20260904001548 78 238 0.0 0.0 0.00 0.00 0.00 93 1012.6
20260904001348 78 238 0.0 0.0 0.00 0.00 0.00 93 1014.0
20260904000840 79 238 0.0 0.0 0.00 0.00 0.00 93 1014.1
20260904000355 79 238 0.0 0.0 0.00 0.00 0.00 93 1014.4
20260904000043 78 238 0.0 0.0 0.00 0.00 0.00 93 1013.0
20260903235842 79 238 0.0 0.0 0.00 0.00 0.00 93 1014.5
20260903235338 79 238 0.0 0.0 0.00 0.00 0.00 93 1014.5
20260903234851 79 238 0.0 0.0 0.00 0.00 0.00 92 1014.6
20260903234543 79 238 0.0 0.0 0.00 0.00 0.00 92 1013.3
20260903234343 79 238 0.0 0.0 0.00 0.00 0.00 92 1014.7
20260903233836 80 238 0.0 0.0 0.00 0.00 0.00 92 1014.8
20260903233407 80 238 0.0 0.0 0.00 0.00 0.00 92 1014.8
20260903233040 80 238 0.0 0.0 0.00 0.00 0.00 92 1013.4
20260903232349 80 238 0.0 0.0 0.00 0.00 0.00 91 1014.9
20260903231843 81 238 0.0 0.0 0.00 0.00 0.00 91 1014.7
20260903231515 80 238 0.0 0.0 0.00 0.00 0.00 91 1013.2
20260903231415 81 238 0.0 0.0 0.00 0.00 0.00 91 1014.7
20260903230845 81 238 0.0 0.0 0.00 0.00 0.00 91 1014.5
20260903230358 81 238 0.0 0.0 0.00 0.00 0.00 90 1014.0
20260903230100 81 238 0.0 0.0 0.00 0.00 0.00 90 1012.5
20260903225844 81 238 0.0 0.0 0.00 0.00 0.00 90 1014.0
20260903225337 81 238 0.0 0.0 0.00 0.00 0.00 90 1013.9
20260903224909 81 238 0.0 0.0 0.00 0.00 0.00 89 1013.8
20260903224542 81 238 0.0 0.0 0.00 0.00 0.00 89 1012.3
20260903224342 82 238 0.0 0.0 0.00 0.00 0.00 89 1013.6
20260903223853 82 238 0.0 0.0 0.00 0.00 0.00 89 1013.8
20260903223348 82 238 0.0 0.0 0.00 0.00 0.00 88 1013.8
20260903223040 82 238 0.0 0.0 0.00 0.00 0.00 88 1012.3
20260903222839 82 238 0.0 0.0 0.00 0.00 0.00 88 1013.7
20260903222352 83 238 0.0 0.0 0.00 0.00 0.00 87 1013.8
20260903221844 83 238 0.0 0.0 0.00 0.00 0.00 86 1013.8
20260903221539 82 238 0.0 0.0 0.00 0.00 0.00 86 1012.3
20260903221338 83 238 0.0 0.0 0.00 0.00 0.00 86 1013.7
20260903220850 83 238 0.0 0.0 0.00 0.00 0.00 85 1013.4
20260903220343 83 238 0.0 0.0 0.00 0.00 0.00 85 1013.5
20260903220104 83 238 0.0 0.0 0.00 0.00 0.00 85 1012.1
20260903215853 83 238 0.0 0.0 0.00 0.00 0.00 85 1013.5
20260903215346 83 238 0.0 0.0 0.00 0.00 0.00 85 1013.3
20260903214839 84 238 0.0 1.0 0.00 0.00 0.00 85 1013.3
20260903214553 83 238 0.0 1.0 0.00 0.00 0.00 84 1011.8
20260903214353 84 238 0.0 1.0 0.00 0.00 0.00 83 1013.1
20260903213845 84 238 0.0 0.0 0.00 0.00 0.00 83 1013.3
20260903213358 85 238 0.0 3.0 0.00 0.00 0.00 80 1013.3
20260903213053 86 238 0.0 3.0 0.00 0.00 0.00 77 1011.9
20260903212849 86 238 1.0 3.0 0.00 0.00 0.00 73 1013.3
20260903212401 87 161 1.0 3.0 0.00 0.00 0.00 77 1013.3
20260903211837 87 153 1.0 4.0 0.00 0.00 0.00 72 1013.4
20260903211551 86 156 1.0 4.0 0.00 0.00 0.00 72 1012.1
20260903211351 86 208 1.0 3.0 0.00 0.00 0.00 80 1013.5
20260903210844 86 204 0.0 2.0 0.00 0.00 0.00 78 1013.6
20260903210453 88 204 0.0 5.0 0.00 0.00 0.00 72 1013.6
20260903210100 88 204 0.0 5.0 0.00 0.00 0.00 71 1012.2
20260903205855 89 204 2.0 5.0 0.00 0.00 0.00 66 1013.7
20260903205347 88 194 1.0 3.0 0.00 0.00 0.00 68 1013.9
20260903204843 88 232 0.0 5.0 0.00 0.00 0.00 72 1013.8
20260903204537 88 190 0.0 5.0 0.00 0.00 0.00 70 1012.5
20260903204337 88 221 0.0 5.0 0.00 0.00 0.00 67 1013.9
20260903203849 87 81 0.0 3.0 0.00 0.00 0.00 72 1014.0
20260903203342 89 81 0.0 3.0 0.00 0.00 0.00 68 1013.9
20260903203037 88 81 0.0 3.0 0.00 0.00 0.00 68 1012.6
20260903202836 89 134 0.0 3.0 0.00 0.00 0.00 68 1014.0
20260903202349 89 89 1.0 3.0 0.00 0.00 0.00 68 1014.0
20260903201902 89 158 1.0 4.0 0.00 0.00 0.00 67 1014.1
20260903201555 88 158 0.0 4.0 0.00 0.00 0.00 67 1012.8
20260903201354 89 194 1.0 6.0 0.00 0.00 0.00 69 1014.2
20260903200846 89 286 2.0 7.0 0.00 0.00 0.00 69 1014.3
20260903200400 89 126 1.0 5.0 0.00 0.00 0.00 72 1014.3
20260903200009 88 107 1.0 5.0 0.00 0.00 0.00 71 1013.0
20260903195908 89 154 2.0 5.0 0.00 0.00 0.00 70 1014.3